sat.trackr.live / text

‹ back to catalog

UNKNOWN

NORAD 85100

UNKNOWN UNKNOWN UNKNOWN

§ Identity

Operator
Country
Launch date
Launch site
Launch vehicle
Mass (kg)
RCS (m²)

External: N2YO · Heavens-Above

§ Orbital elements

Epoch: 2026-09-17T05:43:53.756832Z

Period
99.94 min
Inclination
74.0441°
Eccentricity
0.0013129
Mean motion
14.40903658 rev/d
Perigee alt
746.1 km
Apogee alt
764.9 km
Semi-major
7,133.7 km
B*
7.0552e-5
RAAN
67.8166°
Arg perigee
229.8449°
Mean anomaly
304.3170°
Rev number
67,345

§ Raw data

UNKNOWN1 85100U          26260.23881663  .00000200  00000+0  70552-4 0  99912 85100  74.0441  67.8166 0013129 229.8449 304.3170 14.40903658673457

JSON: /api/v1/satellites/85100 · /tle

For live sub-satellite position, see the globe view (requires WebGL).

§ Visibility from observer

Set your observer location to see the next 7 days of passes ≥ 10°. The values pass through the URL so the page stays shareable.

No JS? Fill the form by hand. The geolocation button needs JavaScript.